CW2313 Weather Reports


time (UTC)temp
C
wind
direction
speed
KPH
gust
KPH
rain 1hr
cm
rain 24hr
cm
rain mn
cm
humidity
%
barometer
mb
20260505200055 15 136 0.0 0.0 0.00 0.00 0.00 61 1016.5
20260505194552 15 187 0.0 0.0 0.00 0.00 0.00 66 1016.5
20260505193034 15 342 0.0 3.2 0.00 0.00 0.00 69 1016.5
20260505191542 15 187 0.0 0.0 0.00 0.00 0.00 70 1016.5
20260505190016 15 256 0.0 0.0 0.00 0.00 0.00 71 1016.5
20260505184525 14 233 0.0 0.0 0.00 0.00 0.00 73 1016.4
20260505183104 14 4 0.0 0.0 0.00 0.00 0.00 73 1016.3
20260505181559 15 227 0.0 0.0 0.00 0.00 0.00 69 1016.3
20260505180045 15 12 0.0 0.0 0.00 0.00 0.00 69 1016.2
20260505174538 15 316 0.0 0.0 0.00 0.00 0.00 67 1016.1
20260505173020 14 12 0.0 0.0 0.00 0.00 0.00 65 1016.1
20260505171518 14 197 0.0 0.0 0.00 0.00 0.00 68 1016.0
20260505170057 14 230 0.0 0.0 0.00 0.00 0.00 68 1015.8
20260505164556 13 275 0.0 0.0 0.00 0.00 0.00 70 1015.7
20260505163037 13 216 0.0 0.0 0.00 0.00 0.00 70 1015.5
20260505161533 13 209 0.0 0.0 0.00 0.00 0.00 71 1012.3
20260505153052 12 204 0.0 0.0 0.00 0.00 0.00 74 1015.4
20260505151546 12 202 0.0 0.0 0.00 0.00 0.00 75 1015.3
20260505124553 8 70 0.0 0.0 0.00 0.00 0.00 76 1014.3
20260505123033 8 71 0.0 0.0 0.00 0.00 0.00 74 1014.3
20260505121536 7 70 0.0 0.0 0.00 0.00 0.00 75 1014.3
20260505120016 7 70 0.0 0.0 0.00 0.00 0.00 74 1014.2
20260505114512 7 70 0.0 0.0 0.00 0.00 0.00 74 1014.1
20260505113103 7 70 0.0 0.0 0.00 0.00 0.00 74 1014.2
20260505111554 8 70 0.0 0.0 0.00 0.00 0.00 72 1014.1
20260505101523 8 70 0.0 0.0 0.00 0.00 0.00 73 1013.9
20260505100057 8 70 0.0 0.0 0.00 0.00 0.00 72 1014.0
20260505094601 8 70 0.0 0.0 0.00 0.00 0.00 72 1013.9
20260505093046 8 70 0.0 0.0 0.00 0.00 0.00 72 1014.0
20260505091535 7 70 0.0 0.0 0.00 0.00 0.00 73 1013.9
20260505090021 7 70 0.0 0.0 0.00 0.00 0.00 72 1013.9
20260505084525 7 70 0.0 0.0 0.00 0.00 0.00 75 1013.9
20260505083115 8 70 0.0 0.0 0.00 0.00 0.00 73 1013.9
20260505081554 8 71 0.0 0.0 0.00 0.00 0.00 73 1014.0
20260505080052 8 70 0.0 0.0 0.00 0.00 0.00 72 1014.0
20260505074535 8 70 0.0 0.0 0.00 0.00 0.00 70 1014.0
20260505073034 8 12 0.0 6.4 0.00 0.00 0.00 68 1014.0
20260505071513 8 41 0.0 0.0 0.00 0.00 0.00 72 1013.9
20260505070022 9 41 0.0 0.0 0.00 0.00 0.00 71 1013.7
20260505064558 9 41 0.0 0.0 0.00 0.00 0.00 69 1013.6
20260505063056 10 42 0.0 0.0 0.00 0.00 0.00 68 1013.6
20260505061603 10 42 0.0 0.0 0.00 0.00 0.00 68 1013.6
20260505060041 10 42 0.0 0.0 0.00 0.00 0.00 70 1013.6
20260505054522 10 42 0.0 0.0 0.00 0.00 0.00 67 1013.6
20260505053023 10 42 0.0 0.0 0.00 0.00 0.00 68 1013.6
20260505051600 11 42 0.0 0.0 0.00 0.00 0.00 66 1013.6
20260505041524 11 42 0.0 0.0 0.00 0.00 0.00 63 1013.6
20260505040037 11 23 0.0 0.0 0.00 0.00 0.00 62 1013.5
20260505034505 12 18 0.0 0.0 0.00 0.00 0.00 62 1013.4
20260505033011 12 18 0.0 0.0 0.00 0.00 0.00 61 1013.4
20260505031551 12 19 0.0 0.0 0.00 0.00 0.00 61 1013.2
20260505030046 13 18 0.0 0.0 0.00 0.00 0.00 59 1013.1
20260505024529 14 5 0.0 0.0 0.00 0.00 0.00 54 1013.1
20260505023028 15 34 0.0 11.3 0.00 0.00 0.00 52 1013.2
20260505021511 15 50 0.0 16.1 0.00 0.00 0.00 50 1013.1
20260505020013 15 60 0.0 12.9 0.00 0.00 0.00 49 1013.2
20260505014553 15 51 0.0 1.6 0.00 0.00 0.00 48 1013.3
20260505013052 15 35 0.0 17.7 0.00 0.00 0.00 47 1013.3
20260505011537 16 6 0.0 0.0 0.00 0.00 0.00 46 1013.4
20260505010038 16 300 0.0 0.0 0.00 0.00 0.00 45 1013.4
20260505004518 16 41 0.0 0.0 0.00 0.00 0.00 44 1013.6
20260505003016 16 25 0.0 0.0 0.00 0.00 0.00 43 1013.5
20260505001559 17 252 0.0 0.0 0.00 0.00 0.00 42 1013.5
20260505000108 17 68 0.0 0.0 0.00 0.00 0.00 43 1013.5
20260504234540 17 287 0.0 0.0 0.00 0.00 0.00 41 1013.5
20260504233040 17 206 0.0 0.0 0.00 0.00 0.00 40 1013.5
20260504231522 17 44 0.0 0.0 0.00 0.00 0.00 39 1013.5
20260504230022 17 28 0.0 0.0 0.00 0.00 0.00 38 1013.6
20260504224504 17 60 0.0 0.0 0.00 0.00 0.00 37 1013.8
20260504223002 17 259 0.0 0.0 0.00 0.00 0.00 37 1013.8
20260504221547 16 359 0.0 0.0 0.00 0.00 0.00 38 1013.9
20260504220050 17 327 0.0 0.0 0.00 0.00 0.00 39 1013.9
20260504214530 17 29 0.0 0.0 0.00 0.00 0.00 41 1014.1
20260504213029 17 96 0.0 0.0 0.00 0.00 0.00 44 1014.2
20260504211507 17 137 0.0 0.0 0.00 0.00 0.00 43 1014.3
20260504210007 17 30 0.0 0.0 0.00 0.00 0.00 42 1014.3
20260504204559 17 301 0.0 0.0 0.00 0.00 0.00 42 1014.3
20260504203049 17 277 0.0 0.0 0.00 0.00 0.00 40 1014.4
20260504201532 17 22 0.0 0.0 0.00 0.00 0.00 40 1014.4